Starlink 31964

operational
NORAD ID: 59895 Int'l Des: 2024-100 Owner: SPXS Country: US Constellation: starlink
LEOCIRCULAR

About Starlink 31964

Description loading...

Live Position

Loading 3D Globe...

Upcoming Passes

Altitude History

Altitude vs Time

uPlot chart will show altitude changes over time

Two-Line Element Set

1 59895U 24100L 25260.04165120 .00000816 00000-0 39173-4 0 9999
2 59895 42.9998 25.7245 0001327 270.2853 89.7847 15.27581282 74559
Epoch: Sep 17, 2025 • Age: 24 hours

Current Status

Altitude 486.7 km
Velocity 7.63 km/s
Sub-Earth Point 41.22°N, 118.77°E
Launch Date May 28, 2024
Age 1.3 years
Type internet

Technical Details

Classification Payload
Mass 730.00 kg
Dry Mass 700.00 kg
Total Mass 730.00 kg
Length 0.30 m
Diameter 4.10 m
Span 29.00 m
Shape Box + pan
Manufacturer SPXS
Bus Type Starlink V2M
Phase Status In Orbit
Owner/State SPXS/US

Large Constellations

Loading constellations...